Weather in Blagoveshchen'e

Russia / Vologda Oblast     60°43′47″N   46°06′05″E
temp.,
°C
wind,
m/s
gust,
m/s
humid.,
%
clouds,
%
prec.,
mm/h
press.,
hPa
HPBL,
m
15 april, thu
thu1500:00+11wsw41186100 0.1 1017610
03:00+6n4888100 0.2 1020577
06:00+4nne3793100 1.6 1022563
09:00+6nne357298 1.8 10241004
12:00+8n455653 0.0 10251526
15:00+8n46505 0.0 10261361
18:00+5n36603 0.0 1028240
21:00+2n28780 0.0 1030185
16 april, fri
fri1600:000nne26825 0.0 1031123
03:00−1nne24855 0.0 103268
06:000ne13795 0.0 103391
09:00+5nne11521 0.0 1033622
12:00+8nnw22430 0.0 10321163
15:00+9nnw23411 0.0 10311426
18:00+7nnw22595 0.0 103119
21:00+3n22765 0.0 103213
17 april, sat
sat1700:00+2nnw22805 0.0 103316
03:000nnw22895 0.0 103324
06:00+1nnw14875 0.0 1034116
09:00+6n23665 0.0 1033831
12:00+9nnw33505 0.0 10321397
15:00+10nnw34435 0.0 10311403
18:00+8nnw36555 0.0 1030224
21:00+4nw28764 0.0 1031171
18 april, sun
sun1800:00+2nw29834 0.0 1030246
03:00+1nw28890 0.0 1030184
06:00+2n310845 0.0 1031478
09:00+3ne368096 0.0 1032747
12:00+6ne45385 0.1 10331439
15:00+7ne45315 0.1 10331579
18:00+5ene36400 0.0 1034454
21:00+1ene26610 0.0 1035125
19 april, mon
mon1900:00−1e24664 0.0 103690
03:00−2ese22675 0.0 103737
06:000se23605 0.0 1038132
09:00+4se22390 0.0 1037977
12:00+7se22321 0.0 10361467
15:00+8se11305 0.0 10351564
18:00+6sse11420 0.0 103410
21:00+2sse11550 0.0 103510